TimeEST,TemperatureF,Dew PointF,Humidity,Sea Level PressureIn,VisibilityMPH,Wind Direction,Wind SpeedMPH,Gust SpeedMPH,PrecipitationIn,Events,Conditions,WindDirDegrees,DateUTC
12:51 AM,42.8,41.0,93,29.74,6.0,SE,12.7,-,0.10,Rain,Light Rain,130,2012-12-10 05:51:00
12:56 AM,43.0,41.0,93,29.77,8.0,SE,12.7,17.3,0.10,Rain,Light Rain,130,2012-12-10 05:56:00
1:32 AM,44.6,42.8,93,29.72,8.0,SE,11.5,20.7,0.01,Rain,Light Rain,140,2012-12-10 06:32:00
1:56 AM,45.0,43.0,93,29.74,8.0,SE,11.5,18.4,0.02,Rain,Light Rain,140,2012-12-10 06:56:00
2:41 AM,46.4,44.6,93,29.70,8.0,SE,13.8,19.6,0.05,Rain,Light Rain,140,2012-12-10 07:41:00
2:56 AM,46.0,44.1,93,29.71,8.0,SE,9.2,-,0.06,Rain,Light Rain,140,2012-12-10 07:56:00
3:11 AM,46.4,44.6,93,29.67,8.0,SE,12.7,20.7,0.00,Rain,Light Rain,140,2012-12-10 08:11:00
3:26 AM,46.4,44.6,93,29.67,9.0,SSE,8.1,-,0.01,,Overcast,160,2012-12-10 08:26:00
3:56 AM,46.9,45.0,93,29.67,6.0,SE,9.2,-,0.05,Rain,Light Rain,140,2012-12-10 08:56:00
4:47 AM,48.2,46.4,93,29.65,5.0,SSW,6.9,16.1,0.05,Rain,Light Rain,200,2012-12-10 09:47:00
4:56 AM,48.0,46.0,93,29.68,6.0,South,8.1,-,0.06,Rain,Light Rain,190,2012-12-10 09:56:00
5:22 AM,48.2,46.4,93,29.65,6.0,South,8.1,-,0.04,Rain,Light Rain,170,2012-12-10 10:22:00
5:50 AM,48.2,46.4,93,29.63,8.0,South,10.4,17.3,0.06,Rain,Light Rain,180,2012-12-10 10:50:00
5:56 AM,48.9,46.9,93,29.66,10.0,South,9.2,-,0.06,,Overcast,180,2012-12-10 10:56:00
6:53 AM,51.8,48.2,88,29.64,10.0,SSW,8.1,-,N/A,,Overcast,200,2012-12-10 11:53:00
6:56 AM,51.1,48.9,92,29.65,10.0,SSW,8.1,-,N/A,,Overcast,200,2012-12-10 11:56:00
7:56 AM,53.1,50.0,89,29.65,10.0,SSW,12.7,19.6,N/A,,Overcast,210,2012-12-10 12:56:00
8:04 AM,53.6,50.0,88,29.63,10.0,SW,9.2,20.7,N/A,,Overcast,220,2012-12-10 13:04:00
8:16 AM,53.6,50.0,88,29.63,9.0,SW,10.4,-,0.01,,Overcast,220,2012-12-10 13:16:00
8:23 AM,53.6,50.0,88,29.63,8.0,SW,11.5,18.4,0.01,Rain,Light Rain,220,2012-12-10 13:23:00
8:56 AM,53.1,50.0,89,29.63,9.0,SSW,10.4,-,0.03,Rain,Light Rain,210,2012-12-10 13:56:00
9:56 AM,53.1,51.1,93,29.63,4.0,SSW,10.4,21.9,0.05,Rain,Light Rain,210,2012-12-10 14:56:00
10:56 AM,53.1,50.0,89,29.61,10.0,SSW,11.5,-,0.03,,Overcast,210,2012-12-10 15:56:00
11:29 AM,53.6,50.0,88,29.57,10.0,SSW,11.5,25.3,0.01,,Overcast,210,2012-12-10 16:29:00
11:56 AM,53.1,50.0,89,29.57,10.0,SSW,12.7,23.0,0.01,,Overcast,210,2012-12-10 16:56:00
12:56 PM,53.1,50.0,89,29.54,9.0,SW,9.2,-,0.00,Rain,Light Rain,220,2012-12-10 17:56:00
1:46 PM,51.8,50.0,94,29.53,4.0,SW,12.7,-,0.06,Rain,Light Rain,230,2012-12-10 18:46:00
1:56 PM,52.0,50.0,93,29.53,7.0,SW,8.1,-,0.08,Rain,Light Rain,230,2012-12-10 18:56:00
2:10 PM,51.8,50.0,94,29.52,4.0,WSW,5.8,-,0.02,Rain,Light Rain,240,2012-12-10 19:10:00
2:19 PM,51.8,50.0,94,29.51,2.5,West,5.8,-,0.05,Rain,Light Rain,260,2012-12-10 19:19:00
2:27 PM,51.8,48.2,88,29.51,5.0,WSW,6.9,-,0.06,Rain,Light Rain,250,2012-12-10 19:27:00
2:38 PM,51.8,48.2,88,29.52,2.0,WSW,6.9,-,0.12,Rain,Light Rain,250,2012-12-10 19:38:00
2:41 PM,50.0,48.2,94,29.52,1.5,WNW,12.7,17.3,0.15,Rain,Heavy Rain,300,2012-12-10 19:41:00
2:51 PM,48.2,46.4,93,29.54,3.0,NW,18.4,24.2,0.18,Rain,Light Rain,310,2012-12-10 19:51:00
2:56 PM,46.9,45.0,93,29.54,4.0,NNW,11.5,24.2,0.20,Rain,Light Rain,330,2012-12-10 19:56:00
3:07 PM,46.4,44.6,93,29.53,5.0,WNW,8.1,-,0.02,Rain,Light Rain,300,2012-12-10 20:07:00
3:45 PM,46.4,42.8,87,29.54,9.0,WNW,9.2,-,0.08,Rain,Light Rain,300,2012-12-10 20:45:00
3:56 PM,45.0,43.0,93,29.56,10.0,NW,11.5,18.4,0.08,Rain,Light Rain,310,2012-12-10 20:56:00
4:06 PM,44.6,42.8,93,29.55,8.0,NW,12.7,-,0.01,Rain,Light Rain,320,2012-12-10 21:06:00
4:56 PM,42.1,39.9,92,29.59,10.0,NW,8.1,-,0.03,Rain,Light Rain,310,2012-12-10 21:56:00
5:24 PM,41.0,37.4,87,29.58,9.0,NNW,11.5,-,0.01,Rain,Light Rain,340,2012-12-10 22:24:00
5:38 PM,39.2,37.4,93,29.59,10.0,NNW,10.4,-,0.02,Rain,Light Rain,330,2012-12-10 22:38:00
5:49 PM,39.2,37.4,93,29.59,10.0,NNW,13.8,20.7,0.03,Rain,Light Rain,340,2012-12-10 22:49:00
5:56 PM,39.0,36.0,89,29.62,10.0,NW,11.5,20.7,0.03,Rain,Light Rain,320,2012-12-10 22:56:00
6:18 PM,39.2,35.6,87,29.60,10.0,NW,11.5,18.4,0.01,Rain,Light Rain,310,2012-12-10 23:18:00
6:45 PM,37.4,35.6,93,29.63,10.0,WNW,9.2,-,0.01,Rain,Light Rain,300,2012-12-10 23:45:00
6:56 PM,37.9,35.1,89,29.65,10.0,NW,8.1,-,0.02,Rain,Light Rain,310,2012-12-10 23:56:00
7:08 PM,37.4,33.8,87,29.65,10.0,WNW,10.4,18.4,0.00,,Overcast,290,2012-12-11 00:08:00
7:17 PM,37.4,33.8,87,29.66,10.0,West,11.5,18.4,0.00,,Overcast,280,2012-12-11 00:17:00
7:56 PM,35.1,33.1,92,29.70,8.0,West,8.1,-,0.01,Snow,Light Snow,270,2012-12-11 00:56:00
8:03 PM,35.6,33.8,93,29.67,5.0,West,5.8,-,0.01,Snow,Light Snow,280,2012-12-11 01:03:00
8:23 PM,35.6,33.8,93,29.66,8.0,WNW,3.5,-,0.02,,Overcast,300,2012-12-11 01:23:00
8:56 PM,34.0,33.1,96,29.70,6.0,WSW,8.1,-,0.03,Snow,Light Snow,240,2012-12-11 01:56:00
9:56 PM,34.0,33.1,96,29.70,8.0,West,4.6,-,0.01,,Overcast,260,2012-12-11 02:56:00
10:56 PM,35.1,33.1,92,29.73,7.0,West,8.1,-,N/A,,Overcast,260,2012-12-11 03:56:00
11:56 PM,34.0,32.0,92,29.75,6.0,WSW,9.2,-,0.00,Snow,Light Snow,250,2012-12-11 04:56:00